TDRS 3 1 19548U 88091B 21100.18174322 -.00000309 00000-0 00000+0 0 9997 2 19548 14.0077 354.8483 0037894 328.0659 252.3200 1.00274340106379 HST 1 20580U 90037B 21099.90761736 .00000524 00000-0 20743-4 0 9995 2 20580 28.4689 158.6153 0002874 48.1341 116.9848 15.09607544500716 TDRS 5 1 21639U 91054B 21099.76203558 .00000075 00000-0 00000-0 0 9999 2 21639 14.2547 8.1658 0027162 4.9495 291.7615 1.00276243108716 TDRS 6 1 22314U 93003B 21099.42272664 -.00000305 00000-0 00000-0 0 9990 2 22314 14.0901 11.3521 0008418 69.0452 223.7897 1.00274346103402 TDRS 7 1 23613U 95035B 21099.88700062 -.00000210 00000-0 00000-0 0 9993 2 23613 14.1249 2.0289 0030634 36.3849 203.9450 1.00267924 94252 ISS (ZARYA) 1 25544U 98067A 21100.55160248 .00001194 00000-0 29935-4 0 9992 2 25544 51.6453 317.2582 0002862 208.3262 238.6763 15.48879686278111 LANDSAT 7 1 25682U 99020A 21100.11997948 .00000006 00000-0 11051-4 0 9993 2 25682 98.0393 159.3812 0001602 71.4041 288.7341 14.57200003169441 TERRA 1 25994U 99068A 21100.17069525 .00000064 00000-0 24197-4 0 9997 2 25994 98.1795 175.8326 0001241 98.8674 290.4160 14.57122032133525 TDRS 8 1 26388U 00034A 21099.96391020 -.00000242 00000-0 00000-0 0 9994 2 26388 9.6919 45.5067 0023130 331.4616 257.7156 1.00275398 76183 EO 1 1 26619U 00075A 21099.84330243 .00000020 00000-0 12290-4 0 9994 2 26619 97.8609 81.1507 0010336 16.9736 343.1812 14.64585058368973 TIMED 1 26998U 01055B 21099.64515132 .00000124 00000-0 17507-4 0 9994 2 26998 74.0725 63.5245 0000647 297.6943 62.4172 14.88288259 48495 TDRS 9 1 27389U 02011A 21099.85549779 -.00000295 00000-0 00000-0 0 9995 2 27389 8.1081 64.7235 0026750 288.9705 90.0967 1.00280215 71452 AQUA 1 27424U 02022A 21100.11879508 .00000083 00000-0 28501-4 0 9999 2 27424 98.2044 42.4428 0002143 107.9823 262.0557 14.57116578 7124 TDRS 10 1 27566U 02055A 21100.18268646 .00000082 00000-0 00000+0 0 9992 2 27566 7.4269 52.2140 0012237 312.0953 89.1309 1.00265220 67234 SORCE 1 27651U 03004A 21099.72429175 .00000108 00000-0 25238-4 0 9999 2 27651 39.9948 117.6484 0023235 302.2082 57.6454 14.89272793988376 AURA 1 28376U 04026A 21099.91654395 .00000090 00000-0 29980-4 0 9992 2 28376 98.2042 44.3984 0001621 80.1284 280.0097 14.57115903890096 SWIFT 1 28485U 04047A 21099.67618288 .00000935 00000-0 33059-4 0 9990 2 28485 20.5565 110.7412 0010928 203.4669 156.5267 15.04935004898107 THEMIS A 1 30580U 07004A 21098.53549724 -.00000076 00000-0 00000-0 0 9990 2 30580 16.3627 22.6394 8391128 84.7530 353.8276 0.87835424 24616 THEMIS D 1 30797U 07004D 21100.02203764 -.00000089 00000-0 00000+0 0 9992 2 30797 13.7272 7.6964 8364803 101.7454 109.6497 0.87837594 48847 THEMIS E 1 30798U 07004E 21097.42598738 -.00000033 00000-0 00000+0 0 9999 2 30798 13.3994 19.5463 8354931 92.4946 352.4897 0.87841783 49224 AIM 1 31304U 07015A 21099.75060265 .00001072 00000-0 62531-4 0 9997 2 31304 97.8753 359.0923 0006624 69.7335 290.4607 15.14261865765515 GLAST 1 33053U 08029A 21099.75304156 .00000585 00000-0 16583-4 0 9990 2 33053 25.5820 242.3815 0012172 195.9478 164.0675 15.11496866708077 WISE 1 36119U 09071A 21099.66712835 .00001022 00000-0 36898-4 0 9999 2 36119 97.2923 137.4332 0004070 67.5461 292.6210 15.30741487629107 TDRS 11 1 39070U 13004A 21100.18717198 .00000062 00000-0 00000+0 0 9990 2 39070 3.4216 336.3250 0006380 47.0064 68.3105 1.00275477 29992 TDRS 12 1 39504U 14004A 21099.50089519 -.00000292 00000-0 00000+0 0 9991 2 39504 4.3014 341.0878 0002405 85.0954 270.9743 1.00265575 26458 GPM 1 39574U 14009C 21099.88344292 .00003706 00000-0 58174-4 0 9998 2 39574 65.0053 223.3626 0010455 278.0833 81.9127 15.55483523404152 MMS 1 1 40482U 15011A 21094.08333333 -.00001091 00000-0 00000-0 0 9990 2 40482 32.8568 117.6374 8433600 30.6484 89.9472 0.28527424 12051 MMS 2 1 40483U 15011B 21094.08333333 -.00001091 00000-0 00000-0 0 9991 2 40483 32.8566 117.6229 8433457 30.6575 89.9580 0.28527422 12115 MMS 3 1 40484U 15011C 21094.08333333 -.00001093 00000-0 00000-0 0 9994 2 40484 32.8077 117.5756 8433424 30.7225 89.9092 0.28519178 11794 MMS 4 1 40485U 15011D 21094.08333333 -.00001092 00000-0 00000-0 0 9994 2 40485 32.8567 117.6267 8433231 30.6635 89.9303 0.28527407 12001